Tracking 28766 objects as of 14-Apr-2024
HD Live streaming from Space Station
objects crossing your sky now

STARLINK-2334

Track STARLINK-2334 now!
10-day predictions
STARLINK-2334 is classified as:


NORAD ID: 47792
Int'l Code: 2021-018F
Perigee: 553.6 km
Apogee: 555.1 km
Inclination: 53.1 °
Period: 95.6 minutes
Semi major axis: 6925 km
RCS: Unknown
Launch date: March 11, 2021
Source: United States (US)
Launch site: AIR FORCE EASTERN TEST RANGE (AFETR)
Your satellite tracking list
Your tracking list is empty




NASA's NSSDC Master Catalog

Two Line Element Set (TLE):
1 47792U 21018F   24104.45340907 -.00001073  00000-0 -53160-4 0  9996
2 47792  53.0534 112.6533 0001089  67.0139 293.0965 15.06401172172096
Source of the keplerian elements: AFSPC